• In Österreich
  • Länderverzeichnis
  • Für 7 Tage
  • Wassertemperatur
  • Satellitenkarten
  • Wetterkarte
  • News
  • Widgets
  • user-avatar
    Anmelden

    Stündliche Wetter Barra

    Heute, 25 Februar, Sonntag

    Zeit Temperatur Niederschläge Wind Luftdruck Luftfeuchtigkeit
    00:00 +25°C° 0,8 mm 4 m/S 746 mmHg 95%
    01:00 +25°C° 0,8 mm 4 m/S 745 mmHg 95%
    02:00 +25°C° 0,2 mm 3 m/S 745 mmHg 95%
    03:00 +25°C° 0,2 mm 3 m/S 745 mmHg 95%
    04:00 +25°C° 0,2 mm 3 m/S 744 mmHg 95%
    05:00 +25°C° 0,2 mm 2 m/S 744 mmHg 94%
    06:00 +25°C° 0,2 mm 2 m/S 744 mmHg 94%
    07:00 +25°C° 0,2 mm 2 m/S 745 mmHg 93%
    08:00 +28°C° 0 mm 2 m/S 745 mmHg 83%
    09:00 +30°C° 0 mm 2 m/S 745 mmHg 72%
    10:00 +33°C° 0 mm 1 m/S 745 mmHg 62%
    11:00 +34°C° 0,5 mm 2 m/S 744 mmHg 62%
    12:00 +34°C° 0,5 mm 2 m/S 744 mmHg 63%
    13:00 +35°C° 0,5 mm 3 m/S 744 mmHg 63%
    14:00 +33°C° 1,6 mm 3 m/S 743 mmHg 71%
    15:00 +31°C° 1,6 mm 3 m/S 743 mmHg 78%
    16:00 +30°C° 1,6 mm 3 m/S 743 mmHg 85%
    17:00 +29°C° 1 mm 3 m/S 743 mmHg 87%
    18:00 +28°C° 1 mm 3 m/S 743 mmHg 90%
    19:00 +27°C° 1 mm 3 m/S 743 mmHg 92%
    20:00 +27°C° 0,6 mm 3 m/S 744 mmHg 92%
    21:00 +27°C° 0,6 mm 3 m/S 744 mmHg 92%
    22:00 +26°C° 0,6 mm 4 m/S 744 mmHg 92%
    23:00 +26°C° 0,5 mm 4 m/S 744 mmHg 93%

    Morgen, 26 Februar, Montag

    Zeit Temperatur Niederschläge Wind Luftdruck Luftfeuchtigkeit
    00:00 +26°C° 0,5 mm 3 m/S 744 mmHg 93%
    01:00 +26°C° 0,5 mm 3 m/S 744 mmHg 94%
    02:00 +26°C° 0,5 mm 3 m/S 744 mmHg 94%
    03:00 +25°C° 0,5 mm 3 m/S 744 mmHg 93%
    04:00 +25°C° 0,5 mm 3 m/S 743 mmHg 93%
    05:00 +25°C° 0 mm 2 m/S 744 mmHg 92%
    06:00 +25°C° 0 mm 2 m/S 744 mmHg 92%
    07:00 +26°C° 0 mm 2 m/S 744 mmHg 91%
    08:00 +28°C° 0 mm 2 m/S 744 mmHg 80%
    09:00 +31°C° 0 mm 2 m/S 744 mmHg 69%
    10:00 +34°C° 0 mm 1 m/S 745 mmHg 59%
    11:00 +36°C° 0,1 mm 2 m/S 744 mmHg 55%
    12:00 +37°C° 0,1 mm 2 m/S 744 mmHg 51%
    13:00 +38°C° 0,1 mm 2 m/S 743 mmHg 47%
    14:00 +36°C° 0,2 mm 3 m/S 743 mmHg 53%
    15:00 +35°C° 0,2 mm 3 m/S 742 mmHg 60%
    16:00 +34°C° 0,2 mm 3 m/S 742 mmHg 66%
    17:00 +31°C° 0,9 mm 3 m/S 742 mmHg 74%
    18:00 +29°C° 0,9 mm 3 m/S 743 mmHg 83%
    19:00 +27°C° 0,9 mm 3 m/S 743 mmHg 92%
    20:00 +27°C° 0,6 mm 3 m/S 744 mmHg 92%
    21:00 +27°C° 0,6 mm 3 m/S 744 mmHg 92%
    22:00 +27°C° 0,6 mm 3 m/S 745 mmHg 93%
    23:00 +26°C° 0,2 mm 3 m/S 745 mmHg 93%

    übermorgen, 27 Februar, Dienstag

    Zeit Temperatur Niederschläge Wind Luftdruck Luftfeuchtigkeit
    00:00 +26°C° 0,2 mm 3 m/S 744 mmHg 93%
    01:00 +26°C° 0,2 mm 3 m/S 744 mmHg 93%
    02:00 +26°C° 0,1 mm 3 m/S 744 mmHg 92%
    03:00 +26°C° 0,1 mm 2 m/S 744 mmHg 91%
    04:00 +26°C° 0,1 mm 2 m/S 743 mmHg 90%
    05:00 +26°C° 0,1 mm 2 m/S 744 mmHg 89%
    06:00 +26°C° 0,1 mm 2 m/S 744 mmHg 88%
    07:00 +26°C° 0,1 mm 2 m/S 745 mmHg 88%
    08:00 +29°C° 0 mm 2 m/S 745 mmHg 78%
    09:00 +31°C° 0 mm 1 m/S 745 mmHg 69%
    10:00 +34°C° 0 mm 1 m/S 745 mmHg 60%
    11:00 +35°C° 0,1 mm 2 m/S 745 mmHg 58%
    12:00 +35°C° 0,1 mm 3 m/S 745 mmHg 57%
    13:00 +36°C° 0,1 mm 3 m/S 744 mmHg 56%
    14:00 +35°C° 0,4 mm 3 m/S 744 mmHg 58%
    15:00 +35°C° 0,4 mm 3 m/S 744 mmHg 61%
    16:00 +34°C° 0,4 mm 4 m/S 743 mmHg 63%
    17:00 +33°C° 0,6 mm 3 m/S 744 mmHg 73%
    18:00 +30°C° 0,6 mm 3 m/S 744 mmHg 83%
    19:00 +28°C° 0,6 mm 3 m/S 745 mmHg 92%
    20:00 +28°C° 0,5 mm 3 m/S 745 mmHg 93%
    21:00 +27°C° 0,5 mm 3 m/S 746 mmHg 94%
    22:00 +27°C° 0,5 mm 3 m/S 746 mmHg 96%
    23:00 +27°C° 0,3 mm 2 m/S 746 mmHg 96%

    28 Februar, Mittwoch

    Zeit Temperatur Niederschläge Wind Luftdruck Luftfeuchtigkeit
    00:00 +27°C° 0,3 mm 2 m/S 745 mmHg 96%
    01:00 +26°C° 0,3 mm 2 m/S 745 mmHg 96%
    02:00 +26°C° 0,1 mm 2 m/S 745 mmHg 96%
    03:00 +26°C° 0,1 mm 2 m/S 745 mmHg 96%
    04:00 +26°C° 0,1 mm 1 m/S 745 mmHg 96%
    05:00 +26°C° 0,1 mm 1 m/S 745 mmHg 95%
    06:00 +26°C° 0,1 mm 1 m/S 745 mmHg 94%
    07:00 +26°C° 0,1 mm 1 m/S 746 mmHg 93%
    08:00 +28°C° 0,1 mm 1 m/S 746 mmHg 84%
    09:00 +31°C° 0,1 mm 1 m/S 746 mmHg 74%
    10:00 +33°C° 0,1 mm 1 m/S 746 mmHg 64%
    11:00 +34°C° 0,6 mm 2 m/S 746 mmHg 66%
    12:00 +34°C° 0,6 mm 2 m/S 745 mmHg 67%
    13:00 +34°C° 0,6 mm 3 m/S 745 mmHg 69%
    14:00 +33°C° 0,2 mm 3 m/S 745 mmHg 69%
    15:00 +33°C° 0,2 mm 3 m/S 744 mmHg 69%
    16:00 +33°C° 0,2 mm 3 m/S 744 mmHg 69%
    17:00 +30°C° 0,3 mm 3 m/S 745 mmHg 76%
    18:00 +29°C° 0,3 mm 2 m/S 745 mmHg 83%
    19:00 +27°C° 0,3 mm 2 m/S 746 mmHg 90%
    20:00 +27°C° 0,6 mm 1 m/S 746 mmHg 92%
    21:00 +27°C° 0,6 mm 1 m/S 747 mmHg 93%
    22:00 +27°C° 0,6 mm 1 m/S 747 mmHg 95%
    23:00 +24°C° 0,1 mm 0 m/S 747 mmHg 95%

    1 März, Donnerstag

    Zeit Temperatur Niederschläge Wind Luftdruck Luftfeuchtigkeit
    00:00 +24°C° 0,1 mm 0 m/S 746 mmHg 96%
    01:00 +24°C° 0,1 mm 0 m/S 746 mmHg 96%
    02:00 +24°C° 0,1 mm 0 m/S 746 mmHg 96%
    03:00 +26°C° 0,1 mm 1 m/S 745 mmHg 96%
    04:00 +26°C° 0,1 mm 1 m/S 745 mmHg 96%
    05:00 +26°C° 0,4 mm 1 m/S 746 mmHg 96%
    06:00 +26°C° 0,4 mm 1 m/S 746 mmHg 95%
    07:00 +26°C° 0,4 mm 1 m/S 747 mmHg 94%
    08:00 +28°C° 0,2 mm 1 m/S 747 mmHg 86%
    09:00 +30°C° 0,2 mm 1 m/S 747 mmHg 79%
    10:00 +31°C° 0,2 mm 1 m/S 747 mmHg 71%
    11:00 +32°C° 1 mm 2 m/S 746 mmHg 71%
    12:00 +32°C° 1 mm 2 m/S 746 mmHg 70%
    13:00 +33°C° 1 mm 3 m/S 745 mmHg 70%
    14:00 +31°C° 0,5 mm 3 m/S 745 mmHg 72%
    15:00 +30°C° 0,5 mm 3 m/S 745 mmHg 74%
    16:00 +29°C° 0,5 mm 3 m/S 744 mmHg 76%
    17:00 +29°C° 0 mm 2 m/S 745 mmHg 80%
    18:00 +28°C° 0 mm 2 m/S 745 mmHg 84%
    19:00 +27°C° 0 mm 1 m/S 746 mmHg 87%
    20:00 +27°C° 0,1 mm 1 m/S 746 mmHg 88%
    21:00 +26°C° 0,1 mm 1 m/S 746 mmHg 90%
    22:00 +26°C° 0,1 mm 1 m/S 747 mmHg 91%
    23:00 +26°C° 0 mm 1 m/S 746 mmHg 92%

    2 März, Freitag

    Zeit Temperatur Niederschläge Wind Luftdruck Luftfeuchtigkeit
    00:00 +26°C° 0 mm 1 m/S 746 mmHg 92%
    01:00 +25°C° 0 mm 1 m/S 746 mmHg 93%
    02:00 +25°C° 0,1 mm 1 m/S 746 mmHg 93%
    03:00 +25°C° 0,1 mm 1 m/S 745 mmHg 93%
    04:00 +25°C° 0,1 mm 1 m/S 745 mmHg 94%
    05:00 +25°C° 0,2 mm 1 m/S 745 mmHg 93%
    06:00 +25°C° 0,2 mm 1 m/S 746 mmHg 92%
    07:00 +25°C° 0,2 mm 1 m/S 746 mmHg 92%
    08:00 +27°C° 0,7 mm 1 m/S 746 mmHg 85%
    09:00 +29°C° 0,7 mm 2 m/S 747 mmHg 79%
    10:00 +30°C° 0,7 mm 2 m/S 747 mmHg 73%
    11:00 +31°C° 0,2 mm 2 m/S 746 mmHg 70%
    12:00 +32°C° 0,3 mm 2 m/S 746 mmHg 67%
    13:00 +32°C° 0,3 mm 2 m/S 745 mmHg 64%
    14:00 +32°C° 0,4 mm 2 m/S 745 mmHg 68%
    15:00 +31°C° 0,4 mm 2 m/S 745 mmHg 71%
    16:00 +30°C° 0,4 mm 2 m/S 744 mmHg 75%
    17:00 +29°C° 1,3 mm 2 m/S 745 mmHg 81%
    18:00 +28°C° 1,3 mm 2 m/S 745 mmHg 87%
    19:00 +26°C° 1,3 mm 1 m/S 745 mmHg 93%
    20:00 +26°C° 2 mm 1 m/S 746 mmHg 94%
    21:00 +26°C° 2 mm 1 m/S 746 mmHg 95%
    22:00 +26°C° 2 mm 1 m/S 746 mmHg 96%
    23:00 +25°C° 2,4 mm 1 m/S 746 mmHg 96%
    Mehr zeigen